SCP
0 -0 0 0 -0 0 0 0 0 0 0 0 0 0 0 0 0 0 0 0 0 0 0 0 0 0 0 0 0 0 0 0 0 0 0 0 0 0 0 0 0 0 0 0
0 0 0 0 0 0 0 0 0 0 0 0 0 0 0 0 0 0 0 0 0 0 0 0 0 0 0 0 0 0 0 0 0 0 0 0 0 0 0 0 0 0 0 0
0 0 0 0 0 0 0 0 0 0 0 0 0 0 0 0 0 0 0 0 0 0 0 0 0 0 0 0 0 0 0 0 0 0 0 0 0 0 0 0 0 0 0 0
0 0 0 0 0 0 0 0 0 0 0 0 0 0 0 0 0 0 0 0 0 0 0 0 0 0 0 0 0 0 0 0 0 0 0 0 0 0 0 0 0 0 -0 -0
0 0 0 0 0 0 0 0 0 0 0 0 0 0 0 0 0 0 0 0 0 0 0 0 0 0 0 0 0 0 0 0 0 0 0 0 0 0 0 0 -0 -0 -0 -0
0 0 0 0 0 0 0 0 0 0 0 0 0 0 0 0 0 0 0 0 0 0 0 0 0 0 0 0 0 0 0 0 0 0 0 0 0 0 0 0 -0 -0 0 -0
0 0 0 0 0 0 0 0 0 0 0 0 0 0 0 0 0 0 0 0 0 0 0 0 0 0 0 0 0 0 0 0 0 0 0 0 0 0 0 -0 -0 -0 -0 -0
0 0 0 0 0 0 0 0 0 0 0 0 0 0 0 0 0 0 0 0 0 0 0 0 0 0 0 0 0 0 0 0 0 0 0 -0 0 0 0 0 -0 -0 -0 -0
0 0 0 0 0 0 0 0 0 0 0 0 0 0 0 0 0 0 0 0 0 0 0 0 0 0 0 0 0 0 0 0 0 0 0 0 0 0 -0 -0 -0 0 0 -0
0 0 0 0 0 0 0 0 0 0 0 0 0 0 0 0 0 0 0 0 0 0 0 0 0 0 0 0 0 0 0 0 -0 0 0 0 0 0 -0 -0 0 -0 -0 -0
0 0 0 0 0 0 0 0 0 0 0 0 0 0 0 0 0 0 0 0 0 0 0 0 0 0 0 0 0 0 0 0 0 0 0 0 0 0 -0 0 -0 -0 -0 -0
0 0 0 0 0 0 0 0 0 0 0 0 0 0 0 -0 -0 0 0 0 0 0 0 0 0 0 0 0 0 0 0 0 0 0 0 0 0 -0 -0 -0 -0 -0 -0 -0
0 0 0 0 0 0 0 0 0 0 0 0 0 0 0 0 0 0 0 0 0 0 0 0 0 0 0 0 0 0 0 0 0 0 0 0 -0 -0 -0 -0 -0 -0 -0 -0
0 -0 0 -0 0 0 0 0 0 0 0 0 0 0 0 0 0 0 0 0 0 0 0 0 0 0 0 0 0 0 0 0 0 0 0 0 -0 -0 -0 0 0 -0 -0 -0
0 -0 0 0 0 0 0 0 0 0 0 0 0 0 0 0 0 0 0 0 0 0 0 0 0 0 0 0 0 -0 0 0 0 0 0 0 0 -0 0 0 0 -0 -0 -0
0 0 0 0 0 0 0 0 0 0 0 0 0 0 0 0 0 0 0 0 0 0 0 0 0 0 0 0 -0 0 0 0 0 0 -0 0 0 -0 -0 0 0 -0 -0 0
0 0 0 0 0 0 0 0 0 0 0 0 0 0 0 0 0 0 0 0 0 0 0 0 0 0 0 0 -0 0 0 0 -0 -0 -0 0 0 0 0 0 0 -0 0 -0
0 0 0 0 0 0 0 0 0 0 0 0 0 0 0 0 0 0 0 0 0 0 0 0 0 0 0 0 0 0 0 0 -0 0 0 0 0 0 0 0 0 0 0 0
0 0 0 0 0 0 0 0 0 0 0 0 0 0 0 0 0 0 0 0 0 0 0 0 0 -0 -0 0 0 0 0 0 -0 0 0 0 0 0 0 0 0 0 0 0
0 0 0 0 0 0 0 0 0 0 0 0 0 0 0 0 0 0 0 0 0 0 0 0 -0 0 0 0 0 0 0 0 0 0 0 0 0 0 -0 -0 0 0 0 0
0 0 0 0 0 0 0 0 0 0 0 0 0 0 -0 0 0 0 0 0 0 0 0 -0 -0 -0 -0 0 0 0 0 0 0 0 0 0 0 0 -0 -0 0 0 0 0
0 0 0 0 0 0 0 0 0 0 0 0 -0 -0 0 0 0 0 0 0 0 0 -0 -0 0 0 -0 -0 0 0 0 0 0 0 0 0 0 0 -0 0 0 0 -0 0
0 0 0 0 0 0 0 0 0 -0 -0 0 0 -0 0 0 0 0 0 0 0 0 -0 -0 0 -0 -0 -0 0 0 0 0 0 -0 -0 0 0 0 -0 -0 -0 -0 -0 0
0 0 0 0 0 0 0 0 0 0 0 0 0 0 -0 0 0 0 0 0 0 -0 -0 0 0 -0 -0 -0 0 0 0 0 0 -0 -0 -0 -0 -0 -0 -0 -0 -0 -0 0
0 0 0 -0 0 0 0 0 0 -0 0 0 0 -0 0 0 0 0 0 0 0 -0 0 0 0 -0 -0 -0 -0 0 0 0 0 -0 0 -0 -0 -0 -0 -0 0 0 0 0
0 0 0 0 0 0 -0 -0 -0 -0 -0 0 0 0 0 0 0 0 0 0 0 0 0 0 0 -0 -0 -0 -0 -0 0 0 0 0 -0 0 -0 -0 -0 -0 -0 0 -0 -0
0 0 0 0 0 0 0 -0 -0 0 -0 -0 0 0 0 -0 0 0 0 0 0 0 0 0 0 -0 -0 -0 -0 -0 0 0 0 -0 -0 0 0 -0 0 -0 -0 -0 -0 0
Wind_Speed_500mb
38 38 38 36 45 54 49 13 4 22 2 11 3 4 6 5 6 10 14 11 11 18 20 29 28 27 19 10 14 20 13 9 19 22 6 10 19 21 21 15 18 16 23 34
36 35 31 30 38 47 48 18 9 15 5 5 2 5 8 9 12 10 10 10 10 13 18 12 23 23 17 18 16 9 12 12 16 18 15 13 16 18 18 22 20 28 25 26
37 27 25 24 29 34 28 10 4 8 16 11 10 12 11 11 4 12 14 18 14 19 20 24 12 12 15 12 16 12 11 24 22 20 23 7 18 21 24 28 26 32 33 45
34 35 20 16 21 28 15 12 6 7 6 5 13 10 9 17 11 5 11 9 12 12 10 20 28 29 25 16 18 22 11 28 29 32 32 29 32 33 34 39 40 39 43 45
33 34 27 14 9 20 10 10 7 6 4 9 11 1 2 14 6 5 7 10 19 8 14 19 18 16 18 18 11 20 14 22 25 29 31 33 40 41 42 41 41 44 44 45
32 31 25 21 8 10 5 3 2 6 5 3 8 2 6 8 13 15 19 8 12 19 24 23 34 34 31 29 23 17 20 15 18 25 15 20 27 33 23 23 24 29 32 31
30 28 24 18 17 8 4 4 2 5 6 6 8 18 20 19 20 21 21 24 22 15 10 27 38 40 42 47 36 35 26 19 16 18 21 27 6 2 12 17 20 24 30 31
21 18 20 18 12 11 6 8 6 5 8 17 14 10 15 23 23 27 28 27 17 15 16 8 14 15 25 37 37 33 26 23 14 16 17 28 13 7 8 16 27 31 21 25
21 18 17 17 16 14 14 11 9 6 10 2 11 13 18 16 14 16 10 13 23 14 6 8 7 7 6 10 14 13 25 26 17 12 10 7 11 7 10 18 19 10 24 35
23 19 17 18 17 17 15 15 12 7 10 14 12 11 10 8 8 7 15 9 5 7 5 7 8 7 4 5 10 13 13 17 26 24 13 14 10 6 14 11 12 44 48 56
18 20 19 20 20 19 17 13 15 16 11 28 23 13 17 18 14 6 4 14 3 4 6 6 6 7 3 6 6 11 18 16 12 16 10 14 4 10 10 23 37 45 52 57
26 21 20 21 21 22 20 21 18 20 25 21 30 47 43 41 33 10 8 6 1 4 5 4 7 7 7 4 5 8 8 10 5 9 3 3 6 12 17 18 42 46 53 60
31 27 22 22 23 24 25 24 18 15 16 33 16 9 12 9 21 33 15 10 11 8 3 5 5 7 3 5 8 9 8 8 7 5 6 2 20 10 11 34 40 49 52 57
32 32 21 21 26 26 29 21 15 14 10 6 3 4 13 15 27 29 41 25 9 4 10 6 6 6 5 5 7 13 6 4 9 16 17 13 4 11 29 37 41 48 52 53
30 30 21 19 26 29 22 20 17 17 12 7 21 42 13 12 12 31 35 43 30 11 6 6 5 7 6 9 10 16 18 14 12 9 10 14 24 28 32 37 44 49 54 60
25 29 21 21 29 25 19 10 17 25 22 7 7 9 10 8 8 18 31 35 31 14 7 8 11 3 8 6 7 1 3 6 3 11 16 23 29 25 29 38 44 50 53 56
22 31 24 17 32 31 20 10 4 7 17 5 10 7 4 5 6 20 22 27 16 13 8 9 10 5 9 6 12 4 5 2 4 12 17 22 17 33 35 36 43 48 49 50
25 31 22 27 37 28 24 20 13 9 9 6 6 7 7 8 8 11 20 15 19 16 7 6 8 6 12 7 2 8 4 3 10 12 18 23 27 29 30 35 43 49 50 58
25 31 25 37 26 16 15 11 15 19 11 6 8 5 1 2 1 5 17 18 8 12 6 7 8 7 10 4 8 13 9 6 13 19 21 18 23 26 31 38 43 47 52 58
22 34 14 12 13 18 22 12 12 11 7 10 6 13 9 6 5 4 2 10 6 5 8 13 8 6 6 5 7 10 5 3 13 20 17 22 24 28 33 38 39 41 47 54
48 14 10 20 27 17 8 7 8 9 7 11 12 21 15 8 9 2 6 2 3 5 7 8 7 5 11 11 8 6 1 7 10 11 14 16 21 28 34 36 36 38 42 49
20 12 23 27 11 7 6 7 9 9 7 13 10 10 17 8 6 6 5 4 4 4 17 6 3 7 17 16 9 1 5 8 9 11 11 15 21 24 26 29 33 35 37 42
29 9 12 9 7 8 10 13 8 7 9 10 11 6 8 9 10 6 4 8 5 12 6 5 4 18 20 14 7 1 4 5 6 10 13 17 21 23 25 26 28 30 33 38
10 9 10 9 9 9 9 9 2 4 5 10 13 6 9 10 8 5 6 2 4 5 8 4 10 19 21 13 5 5 8 7 9 11 15 19 22 24 23 24 25 28 31 38
6 7 8 12 12 5 2 1 8 10 9 6 8 7 11 6 5 5 5 6 7 6 4 6 19 25 20 13 13 11 9 9 11 12 17 20 22 23 23 24 24 26 30 36
8 8 6 10 6 11 20 19 22 15 16 9 8 4 5 6 5 8 8 5 2 4 7 20 29 24 19 19 16 12 10 10 12 14 17 19 22 24 24 25 27 28 31 35
6 8 17 15 10 13 8 11 10 8 11 5 5 7 6 5 4 4 2 1 4 14 22 26 24 24 25 21 16 12 9 11 12 14 18 18 19 21 24 28 30 30 31 33
Wind_Direction_500mb
338 341 342 350 351 351 12 8 239 354 358 255 301 304 353 347 290 307 288 272 277 286 279 255 247 242 245 274 294 250 230 274 265 265 75 297 277 268 240 225 239 228 281 284
338 339 342 353 356 360 2 346 319 352 33 302 320 338 282 297 310 320 311 294 288 265 267 278 247 237 237 228 229 254 192 240 253 217 196 206 239 218 243 231 257 260 271 271
331 338 348 356 355 357 5 348 303 39 52 56 343 340 291 276 306 294 296 290 271 267 256 244 264 243 197 214 240 351 268 254 253 263 316 163 239 240 238 239 244 266 261 279
323 330 335 355 6 355 22 20 57 15 346 24 344 304 304 292 304 322 323 281 282 314 266 269 244 238 242 251 231 261 273 251 250 262 272 278 268 261 259 249 256 261 278 287
317 324 329 314 10 356 28 355 348 328 331 327 332 293 345 314 341 284 280 278 312 316 279 288 301 295 247 248 267 233 226 264 268 270 266 263 269 267 262 262 265 267 274 280
311 314 325 326 334 348 352 339 83 326 130 349 302 340 348 314 330 285 276 328 331 295 284 287 279 278 261 266 275 276 247 247 240 267 268 287 269 264 263 274 273 274 273 296
300 300 312 314 317 320 323 247 182 265 301 270 289 296 286 286 289 267 279 276 282 303 315 294 260 244 233 240 251 245 248 239 258 266 285 258 69 2 325 299 291 281 282 299
300 302 302 299 303 302 298 293 186 258 289 287 284 302 289 290 282 268 272 280 298 282 294 267 251 219 226 236 237 229 225 244 253 247 257 280 266 87 4 339 302 296 311 312
294 289 288 280 287 286 284 258 229 215 296 56 298 289 295 292 299 287 258 277 302 257 251 233 259 217 239 161 153 228 213 229 235 259 246 266 61 75 337 313 278 50 327 315
289 277 275 270 274 278 263 259 231 212 254 287 249 283 280 269 260 265 286 292 293 205 243 242 243 229 293 239 186 167 179 195 218 227 249 275 72 6 305 270 344 328 325 317
282 283 274 260 258 267 262 253 236 225 233 286 264 245 255 256 233 240 312 299 144 251 250 248 263 251 148 266 186 185 184 186 203 229 246 257 78 301 315 336 314 316 319 313
263 275 273 265 251 255 253 242 259 258 238 257 285 278 260 245 241 254 217 291 268 286 281 290 282 224 187 59 271 210 245 227 226 228 255 118 303 304 306 319 314 319 317 313
253 258 264 255 246 243 258 253 259 261 272 299 265 280 230 193 223 222 224 216 228 230 258 293 280 274 263 223 244 281 220 215 243 273 124 307 305 305 281 324 319 318 315 314
243 248 262 247 242 249 249 254 246 245 267 278 300 237 225 278 254 229 226 218 205 238 316 284 257 257 243 277 318 273 356 271 275 261 268 313 189 319 323 320 322 319 319 319
245 246 249 250 242 235 242 246 247 246 234 283 288 296 285 232 231 230 221 220 229 247 253 231 257 272 264 238 283 258 242 280 270 277 358 310 304 321 321 323 325 324 324 324
253 239 240 239 232 223 219 244 259 238 240 283 287 322 288 240 251 200 203 220 216 219 233 247 261 253 267 266 264 64 218 225 315 314 309 300 301 312 324 323 324 326 327 326
255 231 241 232 239 216 202 206 168 182 180 231 277 268 211 231 250 182 184 189 204 204 232 233 269 236 242 261 264 183 199 228 283 291 304 302 321 322 324 324 325 327 328 329
271 228 235 255 209 217 221 233 248 240 197 198 270 269 269 190 202 181 186 188 195 213 241 211 233 224 230 255 222 107 138 258 279 283 302 303 312 318 326 328 331 334 335 335
263 210 230 190 186 197 217 228 219 225 202 227 225 253 294 184 211 230 188 185 190 186 219 203 195 224 226 290 175 176 185 219 305 308 309 316 324 328 333 336 337 338 337 339
182 188 168 169 179 180 142 143 185 207 235 232 241 242 255 233 167 278 227 192 205 208 209 164 223 247 80 52 125 142 139 305 319 320 330 333 333 336 337 339 338 339 339 339
182 171 164 137 138 143 156 171 204 186 232 219 228 234 241 263 251 220 273 170 219 220 158 206 194 225 161 166 145 129 9 334 330 327 326 329 330 335 338 341 343 344 344 345
194 171 126 136 169 157 181 201 178 221 244 189 217 213 208 238 231 235 235 255 239 208 158 214 252 120 145 159 162 146 344 338 336 340 350 348 345 345 343 343 346 348 348 349
148 154 143 163 152 192 212 193 193 215 202 194 195 190 186 197 199 223 230 228 196 146 170 217 111 145 155 162 168 115 10 12 37 18 9 360 356 357 357 352 352 354 354 359
188 165 157 220 176 229 211 249 30 105 201 197 213 194 188 184 179 233 237 129 160 206 205 186 134 156 158 158 148 126 95 65 34 27 19 12 9 7 8 5 3 1 3 7
185 182 213 209 241 243 149 254 250 233 235 261 286 211 182 191 225 215 225 188 216 225 95 101 126 146 149 142 130 116 95 66 46 37 25 21 19 19 20 15 14 16 15 12
204 222 237 225 228 234 220 240 253 249 243 244 218 248 201 202 218 195 215 214 205 115 103 123 141 142 140 137 129 114 93 68 54 43 31 29 30 31 32 31 29 21 17 15
215 232 231 257 265 275 238 221 238 238 186 193 213 219 192 155 207 208 181 144 84 126 126 138 143 143 141 138 131 117 94 70 60 46 36 36 36 37 36 30 24 19 18 17
Wind_Speed_850mb
38 38 38 36 45 54 49 13 4 22 2 11 3 4 6 5 6 10 14 11 11 18 20 29 28 27 19 10 14 20 13 9 19 22 6 10 19 21 21 15 18 16 23 34
36 35 31 30 38 47 48 18 9 15 5 5 2 5 8 9 12 10 10 10 10 13 18 12 23 23 17 18 16 9 12 12 16 18 15 13 16 18 18 22 20 28 25 26
37 27 25 24 29 34 28 10 4 8 16 11 10 12 11 11 4 12 14 18 14 19 20 24 12 12 15 12 16 12 11 24 22 20 23 7 18 21 24 28 26 32 33 45
34 35 20 16 21 28 15 12 6 7 6 5 13 10 9 17 11 5 11 9 12 12 10 20 28 29 25 16 18 22 11 28 29 32 32 29 32 33 34 39 40 39 43 45
33 34 27 14 9 20 10 10 7 6 4 9 11 1 2 14 6 5 7 10 19 8 14 19 18 16 18 18 11 20 14 22 25 29 31 33 40 41 42 41 41 44 44 45
32 31 25 21 8 10 5 3 2 6 5 3 8 2 6 8 13 15 19 8 12 19 24 23 34 34 31 29 23 17 20 15 18 25 15 20 27 33 23 23 24 29 32 31
30 28 24 18 17 8 4 4 2 5 6 6 8 18 20 19 20 21 21 24 22 15 10 27 38 40 42 47 36 35 26 19 16 18 21 27 6 2 12 17 20 24 30 31
21 18 20 18 12 11 6 8 6 5 8 17 14 10 15 23 23 27 28 27 17 15 16 8 14 15 25 37 37 33 26 23 14 16 17 28 13 7 8 16 27 31 21 25
21 18 17 17 16 14 14 11 9 6 10 2 11 13 18 16 14 16 10 13 23 14 6 8 7 7 6 10 14 13 25 26 17 12 10 7 11 7 10 18 19 10 24 35
23 19 17 18 17 17 15 15 12 7 10 14 12 11 10 8 8 7 15 9 5 7 5 7 8 7 4 5 10 13 13 17 26 24 13 14 10 6 14 11 12 44 48 56
18 20 19 20 20 19 17 13 15 16 11 28 23 13 17 18 14 6 4 14 3 4 6 6 6 7 3 6 6 11 18 16 12 16 10 14 4 10 10 23 37 45 52 57
26 21 20 21 21 22 20 21 18 20 25 21 30 47 43 41 33 10 8 6 1 4 5 4 7 7 7 4 5 8 8 10 5 9 3 3 6 12 17 18 42 46 53 60
31 27 22 22 23 24 25 24 18 15 16 33 16 9 12 9 21 33 15 10 11 8 3 5 5 7 3 5 8 9 8 8 7 5 6 2 20 10 11 34 40 49 52 57
32 32 21 21 26 26 29 21 15 14 10 6 3 4 13 15 27 29 41 25 9 4 10 6 6 6 5 5 7 13 6 4 9 16 17 13 4 11 29 37 41 48 52 53
30 30 21 19 26 29 22 20 17 17 12 7 21 42 13 12 12 31 35 43 30 11 6 6 5 7 6 9 10 16 18 14 12 9 10 14 24 28 32 37 44 49 54 60
25 29 21 21 29 25 19 10 17 25 22 7 7 9 10 8 8 18 31 35 31 14 7 8 11 3 8 6 7 1 3 6 3 11 16 23 29 25 29 38 44 50 53 56
22 31 24 17 32 31 20 10 4 7 17 5 10 7 4 5 6 20 22 27 16 13 8 9 10 5 9 6 12 4 5 2 4 12 17 22 17 33 35 36 43 48 49 50
25 31 22 27 37 28 24 20 13 9 9 6 6 7 7 8 8 11 20 15 19 16 7 6 8 6 12 7 2 8 4 3 10 12 18 23 27 29 30 35 43 49 50 58
25 31 25 37 26 16 15 11 15 19 11 6 8 5 1 2 1 5 17 18 8 12 6 7 8 7 10 4 8 13 9 6 13 19 21 18 23 26 31 38 43 47 52 58
22 34 14 12 13 18 22 12 12 11 7 10 6 13 9 6 5 4 2 10 6 5 8 13 8 6 6 5 7 10 5 3 13 20 17 22 24 28 33 38 39 41 47 54
48 14 10 20 27 17 8 7 8 9 7 11 12 21 15 8 9 2 6 2 3 5 7 8 7 5 11 11 8 6 1 7 10 11 14 16 21 28 34 36 36 38 42 49
20 12 23 27 11 7 6 7 9 9 7 13 10 10 17 8 6 6 5 4 4 4 17 6 3 7 17 16 9 1 5 8 9 11 11 15 21 24 26 29 33 35 37 42
29 9 12 9 7 8 10 13 8 7 9 10 11 6 8 9 10 6 4 8 5 12 6 5 4 18 20 14 7 1 4 5 6 10 13 17 21 23 25 26 28 30 33 38
10 9 10 9 9 9 9 9 2 4 5 10 13 6 9 10 8 5 6 2 4 5 8 4 10 19 21 13 5 5 8 7 9 11 15 19 22 24 23 24 25 28 31 38
6 7 8 12 12 5 2 1 8 10 9 6 8 7 11 6 5 5 5 6 7 6 4 6 19 25 20 13 13 11 9 9 11 12 17 20 22 23 23 24 24 26 30 36
8 8 6 10 6 11 20 19 22 15 16 9 8 4 5 6 5 8 8 5 2 4 7 20 29 24 19 19 16 12 10 10 12 14 17 19 22 24 24 25 27 28 31 35
6 8 17 15 10 13 8 11 10 8 11 5 5 7 6 5 4 4 2 1 4 14 22 26 24 24 25 21 16 12 9 11 12 14 18 18 19 21 24 28 30 30 31 33
Wind_Direction_850mb
338 341 342 350 351 351 12 8 239 354 358 255 301 304 353 347 290 307 288 272 277 286 279 255 247 242 245 274 294 250 230 274 265 265 75 297 277 268 240 225 239 228 281 284
338 339 342 353 356 360 2 346 319 352 33 302 320 338 282 297 310 320 311 294 288 265 267 278 247 237 237 228 229 254 192 240 253 217 196 206 239 218 243 231 257 260 271 271
331 338 348 356 355 357 5 348 303 39 52 56 343 340 291 276 306 294 296 290 271 267 256 244 264 243 197 214 240 351 268 254 253 263 316 163 239 240 238 239 244 266 261 279
323 330 335 355 6 355 22 20 57 15 346 24 344 304 304 292 304 322 323 281 282 314 266 269 244 238 242 251 231 261 273 251 250 262 272 278 268 261 259 249 256 261 278 287
317 324 329 314 10 356 28 355 348 328 331 327 332 293 345 314 341 284 280 278 312 316 279 288 301 295 247 248 267 233 226 264 268 270 266 263 269 267 262 262 265 267 274 280
311 314 325 326 334 348 352 339 83 326 130 349 302 340 348 314 330 285 276 328 331 295 284 287 279 278 261 266 275 276 247 247 240 267 268 287 269 264 263 274 273 274 273 296
300 300 312 314 317 320 323 247 182 265 301 270 289 296 286 286 289 267 279 276 282 303 315 294 260 244 233 240 251 245 248 239 258 266 285 258 69 2 325 299 291 281 282 299
300 302 302 299 303 302 298 293 186 258 289 287 284 302 289 290 282 268 272 280 298 282 294 267 251 219 226 236 237 229 225 244 253 247 257 280 266 87 4 339 302 296 311 312
294 289 288 280 287 286 284 258 229 215 296 56 298 289 295 292 299 287 258 277 302 257 251 233 259 217 239 161 153 228 213 229 235 259 246 266 61 75 337 313 278 50 327 315
289 277 275 270 274 278 263 259 231 212 254 287 249 283 280 269 260 265 286 292 293 205 243 242 243 229 293 239 186 167 179 195 218 227 249 275 72 6 305 270 344 328 325 317
282 283 274 260 258 267 262 253 236 225 233 286 264 245 255 256 233 240 312 299 144 251 250 248 263 251 148 266 186 185 184 186 203 229 246 257 78 301 315 336 314 316 319 313
263 275 273 265 251 255 253 242 259 258 238 257 285 278 260 245 241 254 217 291 268 286 281 290 282 224 187 59 271 210 245 227 226 228 255 118 303 304 306 319 314 319 317 313
253 258 264 255 246 243 258 253 259 261 272 299 265 280 230 193 223 222 224 216 228 230 258 293 280 274 263 223 244 281 220 215 243 273 124 307 305 305 281 324 319 318 315 314
243 248 262 247 242 249 249 254 246 245 267 278 300 237 225 278 254 229 226 218 205 238 316 284 257 257 243 277 318 273 356 271 275 261 268 313 189 319 323 320 322 319 319 319
245 246 249 250 242 235 242 246 247 246 234 283 288 296 285 232 231 230 221 220 229 247 253 231 257 272 264 238 283 258 242 280 270 277 358 310 304 321 321 323 325 324 324 324
253 239 240 239 232 223 219 244 259 238 240 283 287 322 288 240 251 200 203 220 216 219 233 247 261 253 267 266 264 64 218 225 315 314 309 300 301 312 324 323 324 326 327 326
255 231 241 232 239 216 202 206 168 182 180 231 277 268 211 231 250 182 184 189 204 204 232 233 269 236 242 261 264 183 199 228 283 291 304 302 321 322 324 324 325 327 328 329
271 228 235 255 209 217 221 233 248 240 197 198 270 269 269 190 202 181 186 188 195 213 241 211 233 224 230 255 222 107 138 258 279 283 302 303 312 318 326 328 331 334 335 335
263 210 230 190 186 197 217 228 219 225 202 227 225 253 294 184 211 230 188 185 190 186 219 203 195 224 226 290 175 176 185 219 305 308 309 316 324 328 333 336 337 338 337 339
182 188 168 169 179 180 142 143 185 207 235 232 241 242 255 233 167 278 227 192 205 208 209 164 223 247 80 52 125 142 139 305 319 320 330 333 333 336 337 339 338 339 339 339
182 171 164 137 138 143 156 171 204 186 232 219 228 234 241 263 251 220 273 170 219 220 158 206 194 225 161 166 145 129 9 334 330 327 326 329 330 335 338 341 343 344 344 345
194 171 126 136 169 157 181 201 178 221 244 189 217 213 208 238 231 235 235 255 239 208 158 214 252 120 145 159 162 146 344 338 336 340 350 348 345 345 343 343 346 348 348 349
148 154 143 163 152 192 212 193 193 215 202 194 195 190 186 197 199 223 230 228 196 146 170 217 111 145 155 162 168 115 10 12 37 18 9 360 356 357 357 352 352 354 354 359
188 165 157 220 176 229 211 249 30 105 201 197 213 194 188 184 179 233 237 129 160 206 205 186 134 156 158 158 148 126 95 65 34 27 19 12 9 7 8 5 3 1 3 7
185 182 213 209 241 243 149 254 250 233 235 261 286 211 182 191 225 215 225 188 216 225 95 101 126 146 149 142 130 116 95 66 46 37 25 21 19 19 20 15 14 16 15 12
204 222 237 225 228 234 220 240 253 249 243 244 218 248 201 202 218 195 215 214 205 115 103 123 141 142 140 137 129 114 93 68 54 43 31 29 30 31 32 31 29 21 17 15
215 232 231 257 265 275 238 221 238 238 186 193 213 219 192 155 207 208 181 144 84 126 126 138 143 143 141 138 131 117 94 70 60 46 36 36 36 37 36 30 24 19 18 17